User: anonymous   Login
Location: Red Bud (historical)
(37.7759°N, 88.4053°W)
Time: 06:12:29
(UTC+00:00)
Language:

Tiangong - Orbit

View from above orbital plane
View from above orbital plane
View from above satellite
View from above satellite

Ground track
Ground track

The orbit data is extracted from the following two-line orbital elements,

1 48274U 21035A   21216.70174184  .00007199  00000-0  81106-4 0  9996
2 48274  41.4706 347.0887 0009201 300.3761 194.4213 15.62845942 15284
Epoch (UTC): 04 August 2021 16:50:30
Eccentricity: 0.0009201
inclination: 41.4706°
perigee height: 373 km
apogee height: 385 km
right ascension of ascending node: 347.0887°
argument of perigee: 300.3761°
revolutions per day: 15.62845942
mean anomaly at epoch: 194.4213°
orbit number at epoch: 1528

The dashed part of the orbit path shows where the satellite is in the earth's shadow,  

DLR